Tracking 30923 objects as of 1-Jul-2025
HD Live streaming from Space Station
objects crossing your sky now

COSMOS 2251 DEB

Track COSMOS 2251 DEB now!
10-day predictions


NORAD ID: 35721
Int'l Code: 1993-036AQS
Perigee: 682.1 km
Apogee: 898.7 km
Inclination: 74.0 °
Period: 100.5 minutes
Semi major axis: 7161 km
RCS: 0.0071 m2 (small)
Launch date: June 16, 1993
Source: Commonwealth of Independent States (former USSR) (CIS)
Launch site: PLESETSK MISSILE AND SPACE COMPLEX (PKMTR)

Note: This is SATELLITE DEBRIS
Your satellite tracking list
MIDAS 4 DEB
Track 1 satellite(s)




NASA's NSSDC Master Catalog

Two Line Element Set (TLE):
1 35721U 93036AQS 25181.18599695  .00002292  00000-0  75409-3 0  9991
2 35721  73.9512 122.0387 0151210 304.0382  54.6485 14.32534314554174
Source of the keplerian elements: AFSPC